sat.trackr.live / text

‹ back to catalog

ONEWEB-0551

NORAD 56053 · 2023-043H

PAYLOAD ACTIVE UNKNOWN

§ Identity

Operator
Country
UK
Launch date
2023-03-26
Launch site
SRILR
Launch vehicle
Mass (kg)
RCS (m²)

Purposes: comms

External: N2YO · Heavens-Above · Gunter

§ Orbital elements

Epoch: 2026-09-19T22:08:39.052608Z

Period
109.46 min
Inclination
87.8983°
Eccentricity
0.0001774
Mean motion
13.15547924 rev/d
Perigee alt
1,200.4 km
Apogee alt
1,203.1 km
Semi-major
7,579.9 km
B*
3.7184e-4
RAAN
240.3343°
Arg perigee
75.2596°
Mean anomaly
284.8731°
Rev number
16,885

§ Raw data

ONEWEB-05511 56053U 23043H   26262.92267422  .00000153  00000+0  37184-3 0  99972 56053  87.8983 240.3343 0001774  75.2596 284.8731 13.15547924168858

JSON: /api/v1/satellites/56053 · /tle

For live sub-satellite position, see the globe view (requires WebGL).

§ Visibility from observer

Set your observer location to see the next 7 days of passes ≥ 10°. The values pass through the URL so the page stays shareable.

No JS? Fill the form by hand. The geolocation button needs JavaScript.